When you browse on this site, cookies collect data to enhance your experience and personalize the content and advertising you see.
Visit our Privacy Policy to learn more. By continuing to use the site, you agree to this use of cookies and data.
  • In Romania
  • List of Countries
  • For 7 days
  • Water Temperature
  • Satellite Maps
  • Weather Map
  • Weather Widgets
  • user-avatar
    Login

    Hourly Weather Wrocimowice

    Today, 15 February, Friday

    Time Temperature Precipitation Wind Pressure Humidity
    00:00 +4°C° 0 mm 2 mps 752 mmHg 96%
    01:00 +5°C° 0 mm 1 mps 752 mmHg 96%
    02:00 +5°C° 0 mm 1 mps 751 mmHg 96%
    03:00 +4°C° 0 mm 2 mps 751 mmHg 96%
    04:00 +4°C° 0 mm 2 mps 751 mmHg 96%
    05:00 +4°C° 0 mm 2 mps 751 mmHg 95%
    06:00 +3°C° 0 mm 2 mps 751 mmHg 95%
    07:00 +3°C° 0 mm 2 mps 751 mmHg 95%
    08:00 +4°C° 0 mm 2 mps 751 mmHg 91%
    09:00 +5°C° 0 mm 2 mps 751 mmHg 87%
    10:00 +5°C° 0 mm 2 mps 751 mmHg 83%
    11:00 +6°C° 0 mm 2 mps 751 mmHg 77%
    12:00 +7°C° 0 mm 2 mps 751 mmHg 72%
    13:00 +8°C° 0 mm 3 mps 751 mmHg 66%
    14:00 +8°C° 0 mm 3 mps 751 mmHg 68%
    15:00 +7°C° 0 mm 3 mps 751 mmHg 69%
    16:00 +7°C° 0 mm 3 mps 750 mmHg 71%
    17:00 +5°C° 0 mm 3 mps 750 mmHg 75%
    18:00 +4°C° 0 mm 3 mps 750 mmHg 80%
    19:00 +3°C° 0 mm 3 mps 750 mmHg 85%
    20:00 +3°C° 0 mm 3 mps 750 mmHg 86%
    21:00 +2°C° 0 mm 3 mps 750 mmHg 87%
    22:00 +3°C° 0 mm 2 mps 750 mmHg 88%
    23:00 +3°C° 0 mm 2 mps 750 mmHg 89%

    Tomorrow, 16 February, Saturday

    Time Temperature Precipitation Wind Pressure Humidity
    00:00 +2°C° 0 mm 2 mps 750 mmHg 89%
    01:00 +2°C° 0 mm 2 mps 750 mmHg 90%
    02:00 +2°C° 0 mm 2 mps 750 mmHg 90%
    03:00 +2°C° 0 mm 2 mps 750 mmHg 90%
    04:00 +1°C° 0 mm 2 mps 749 mmHg 90%
    05:00 +1°C° 0 mm 2 mps 749 mmHg 89%
    06:00 +1°C° 0 mm 2 mps 749 mmHg 89%
    07:00 +1°C° 0 mm 2 mps 749 mmHg 88%
    08:00 +3°C° 0 mm 2 mps 749 mmHg 81%
    09:00 +4°C° 0 mm 2 mps 749 mmHg 74%
    10:00 +6°C° 0 mm 2 mps 749 mmHg 67%
    11:00 +7°C° 0 mm 2 mps 749 mmHg 62%
    12:00 +8°C° 0 mm 2 mps 749 mmHg 57%
    13:00 +10°C° 0 mm 2 mps 749 mmHg 52%
    14:00 +10°C° 0 mm 2 mps 748 mmHg 54%
    15:00 +9°C° 0 mm 2 mps 748 mmHg 56%
    16:00 +9°C° 0 mm 2 mps 748 mmHg 58%
    17:00 +8°C° 0 mm 2 mps 748 mmHg 61%
    18:00 +7°C° 0 mm 2 mps 748 mmHg 65%
    19:00 +6°C° 0 mm 2 mps 748 mmHg 69%
    20:00 +5°C° 0 mm 2 mps 748 mmHg 72%
    21:00 +4°C° 0 mm 3 mps 747 mmHg 75%
    22:00 +3°C° 0 mm 3 mps 747 mmHg 78%
    23:00 +3°C° 0 mm 3 mps 747 mmHg 76%

    Day after tomorrow, 17 February, Sunday

    Time Temperature Precipitation Wind Pressure Humidity
    00:00 +3°C° 0 mm 3 mps 747 mmHg 74%
    01:00 +3°C° 0 mm 3 mps 747 mmHg 72%
    02:00 +2°C° 0 mm 3 mps 747 mmHg 71%
    03:00 +2°C° 0 mm 3 mps 746 mmHg 70%
    04:00 +2°C° 0 mm 3 mps 746 mmHg 69%
    05:00 +1°C° 0 mm 3 mps 746 mmHg 70%
    06:00 +1°C° 0 mm 3 mps 746 mmHg 70%
    07:00 +1°C° 0 mm 3 mps 746 mmHg 71%
    08:00 +3°C° 0 mm 3 mps 746 mmHg 65%
    09:00 +4°C° 0 mm 3 mps 747 mmHg 59%
    10:00 +7°C° 0 mm 3 mps 747 mmHg 53%
    11:00 +8°C° 0 mm 3 mps 746 mmHg 50%
    12:00 +8°C° 0 mm 4 mps 746 mmHg 46%
    13:00 +11°C° 0 mm 4 mps 746 mmHg 43%
    14:00 +10°C° 0 mm 3 mps 746 mmHg 46%
    15:00 +10°C° 0 mm 3 mps 745 mmHg 49%
    16:00 +9°C° 0 mm 2 mps 745 mmHg 51%
    17:00 +8°C° 0 mm 2 mps 745 mmHg 56%
    18:00 +7°C° 0 mm 2 mps 746 mmHg 60%
    19:00 +6°C° 0 mm 2 mps 746 mmHg 64%
    20:00 +5°C° 0 mm 2 mps 746 mmHg 67%
    21:00 +6°C° 0 mm 1 mps 746 mmHg 70%
    22:00 +5°C° 0 mm 1 mps 746 mmHg 73%
    23:00 +5°C° 0 mm 1 mps 746 mmHg 75%

    18 February, Monday

    Time Temperature Precipitation Wind Pressure Humidity
    00:00 +4°C° 0 mm 1 mps 746 mmHg 77%
    01:00 +4°C° 0 mm 1 mps 746 mmHg 79%
    02:00 +4°C° 0 mm 1 mps 745 mmHg 80%
    03:00 +3°C° 0 mm 1 mps 745 mmHg 81%
    04:00 +3°C° 0 mm 1 mps 745 mmHg 82%
    05:00 +3°C° 0 mm 1 mps 745 mmHg 81%
    06:00 +2°C° 0 mm 0 mps 745 mmHg 80%
    07:00 +2°C° 0 mm 0 mps 745 mmHg 79%
    08:00 +3°C° 0 mm 0 mps 745 mmHg 73%
    09:00 +5°C° 0 mm 1 mps 745 mmHg 67%
    10:00 +7°C° 0 mm 1 mps 745 mmHg 61%
    11:00 +8°C° 0 mm 1 mps 745 mmHg 58%
    12:00 +9°C° 0 mm 1 mps 745 mmHg 55%
    13:00 +9°C° 0 mm 2 mps 745 mmHg 51%
    14:00 +9°C° 0 mm 2 mps 745 mmHg 53%
    15:00 +8°C° 0 mm 2 mps 744 mmHg 55%
    16:00 +8°C° 0 mm 2 mps 744 mmHg 57%
    17:00 +7°C° 0 mm 2 mps 744 mmHg 62%
    18:00 +6°C° 0 mm 2 mps 744 mmHg 68%
    19:00 +5°C° 0 mm 2 mps 744 mmHg 73%
    20:00 +4°C° 0 mm 2 mps 744 mmHg 77%
    21:00 +4°C° 0 mm 2 mps 744 mmHg 80%
    22:00 +3°C° 0 mm 2 mps 744 mmHg 83%
    23:00 +4°C° 0 mm 1 mps 744 mmHg 84%

    19 February, Tuesday

    Time Temperature Precipitation Wind Pressure Humidity
    00:00 +4°C° 0 mm 1 mps 744 mmHg 84%
    01:00 +3°C° 0 mm 1 mps 744 mmHg 84%
    02:00 +3°C° 0 mm 1 mps 743 mmHg 82%
    03:00 +3°C° 0 mm 1 mps 743 mmHg 81%
    04:00 +3°C° 0 mm 1 mps 743 mmHg 80%
    05:00 +3°C° 0 mm 1 mps 743 mmHg 77%
    06:00 +3°C° 0 mm 1 mps 743 mmHg 74%
    07:00 +2°C° 0 mm 2 mps 742 mmHg 72%
    08:00 +4°C° 0 mm 2 mps 742 mmHg 65%
    09:00 +5°C° 0 mm 2 mps 742 mmHg 58%
    10:00 +7°C° 0 mm 2 mps 742 mmHg 51%
    11:00 +8°C° 0 mm 3 mps 742 mmHg 49%
    12:00 +9°C° 0 mm 3 mps 742 mmHg 47%
    13:00 +11°C° 0 mm 4 mps 741 mmHg 45%
    14:00 +10°C° 0 mm 4 mps 741 mmHg 48%
    15:00 +10°C° 0 mm 3 mps 741 mmHg 52%
    16:00 +10°C° 0 mm 3 mps 741 mmHg 55%
    17:00 +8°C° 0 mm 4 mps 741 mmHg 61%
    18:00 +6°C° 0 mm 4 mps 741 mmHg 67%
    19:00 +5°C° 0 mm 5 mps 741 mmHg 73%
    20:00 +5°C° 0 mm 5 mps 741 mmHg 74%
    21:00 +3°C° 0 mm 5 mps 741 mmHg 75%
    22:00 +3°C° 0 mm 5 mps 741 mmHg 76%
    23:00 +3°C° 0 mm 5 mps 741 mmHg 76%

    20 February, Wednesday

    Time Temperature Precipitation Wind Pressure Humidity
    00:00 +3°C° 0 mm 5 mps 742 mmHg 76%
    01:00 +3°C° 0 mm 5 mps 742 mmHg 76%
    02:00 +3°C° 0 mm 5 mps 742 mmHg 81%
    03:00 +3°C° 0 mm 4 mps 742 mmHg 86%
    04:00 +3°C° 0 mm 4 mps 742 mmHg 90%
    05:00 +1°C° 0 mm 4 mps 742 mmHg 91%
    06:00 +1°C° 0 mm 4 mps 743 mmHg 92%
    07:00 +1°C° 0 mm 4 mps 743 mmHg 92%
    08:00 +2°C° 0 mm 5 mps 743 mmHg 85%
    09:00 +3°C° 0 mm 5 mps 744 mmHg 78%
    10:00 +4°C° 0 mm 6 mps 744 mmHg 70%
    11:00 +5°C° 0 mm 6 mps 744 mmHg 65%
    12:00 +7°C° 0 mm 6 mps 744 mmHg 61%
    13:00 +8°C° 0 mm 7 mps 744 mmHg 56%
    14:00 +7°C° 0 mm 6 mps 744 mmHg 55%
    15:00 +7°C° 0 mm 6 mps 744 mmHg 55%
    16:00 +7°C° 0 mm 5 mps 744 mmHg 55%
    17:00 +6°C° 0 mm 4 mps 744 mmHg 59%
    18:00 +5°C° 0 mm 4 mps 744 mmHg 63%
    19:00 +4°C° 0 mm 3 mps 744 mmHg 67%
    20:00 +4°C° 0 mm 3 mps 744 mmHg 68%
    21:00 +4°C° 0 mm 3 mps 745 mmHg 70%
    22:00 +4°C° 0 mm 4 mps 745 mmHg 71%
    23:00 +4°C° 0 mm 4 mps 745 mmHg 74%
    Show more